Voltar ao catálogo

COSMOS 839 DEB

AtivoUNKNOWN
NORAD 14919·DEBRIS·🇷🇺 Russia

Lançado Jul 8, 1976 de Plesetsk Cosmodrome

Loading…

Próximas Passagens (próximas 24 horas)

TLE

AtualizadoSource: Space-Track

Época: Sep 14, 2026, 01:47 UTC

1 14919U 76067BG  26257.07497767 -.00000037  00000-0  61680-4 0  9995
2 14919  65.8052 171.3619 0716823  60.5796 319.7095 12.30402597645484

Acompanhe COSMOS 839 DEB em tempo real com AllMySat

Download on the App Store